Regional Weather Roundup
Issued by NWS Wakefield, VA

Home | Current Version | Previous Version | Graphics & Text | Print | Product List | Glossary On
Versions: 1 2 3 4 5 6 7 8 9 10 11 12 13 14 15 16 17 18 19 20 21 22 23 24 25 26 27 28 29 30 31 32 33 34 35 36 37 38 39 40 41 42 43 44 45 46 47 48 49 50
000
ASUS41 KAKQ 070315
RWRAKQ

REGIONAL WEATHER ROUNDUP
NATIONAL WEATHER SERVICE WAKEFIELD VA
1100 PM EDT WED MAY 06 2015

Note: "fair" indicates few or no clouds below 12,000 feet with no
significant weather and/or obstructions to visibility. * = Denotes
station may not report precipitation (e.g., rain,snow,etc.),
thunder or fog.

VAZ042-051-052>054-056-070400-
NORTHERN VIRGINIA

CITY           SKY/WX    TMP DP  RH WIND       PRES   REMARKS
WASH NATIONAL  MOCLDY    71  56  58 E5        30.22R
DULLES         CLOUDY    66  64  93 SW5       30.20F
FORT BELVOIR   MOCLDY    68  58  70 E2        30.21R
QUANTICO       CLOUDY    70  59  68 NE10      30.21R
FREDERICKSBRG* MOCLDY    72  61  69 N6        30.18R
STAFFORD*      CLOUDY    68  61  79 N3        30.25R
WARRENTON      CLOUDY    66  64  94 N6        30.21S
CULPEPER*      MOCLDY    62  60  95 CALM      30.22S
MANASSAS*      CLOUDY    66  66 100 CALM      30.21R
LEESBURG*      LGT RAIN  68  68 100 CALM      30.21F
WINCHESTER     DRIZZLE   66  61  82 S10G18    30.20F
FRONT ROYAL*   CLOUDY    63  61  94 SE3       30.21F
LURAY*         RAIN      64  64 100 N9        30.23R
$$

VAZ048-049-060>072-079>083-070400-
CENTRAL AND SOUTH CENTRAL VIRGINIA

CITY           SKY/WX    TMP DP  RH WIND       PRES   REMARKS
RICHMOND       CLOUDY    70  58  65 SE3       30.17R
CHESTERFIELD*  FAIR      70  52  52 CALM      30.19R
PETERSBURG*    MOCLDY    62  60  90 CALM      30.17F
HANOVER        MOCLDY    67  61  81 CALM      30.18S
TAPPAHANNOCK*  MOCLDY    65  54  65 CALM      30.18S
QUINTON*       FAIR      66  60  81 CALM      30.17S
CHARLOTTSVILLE MOCLDY    66  61  84 N12       30.21R
GORDONSVILLE*  FAIR      64  61  91 CALM      30.20R
ORANGE*        CLOUDY    64  63  94 N7        30.22R
LOUISA*        CLOUDY    66  63  88 N9        30.19R
BUMPASS*       FAIR      66  61  84 CALM      30.19R
FARMVILLE*     PTCLDY    68  61  78 N6        30.17R
CREWE*         FAIR      64  59  82 CALM      30.17S
FORT PICKETT*  FAIR      66  55  68 S3        30.18R
CHASE CITY*    FAIR      66  63  89 CALM      30.17R
CLARKSVILLE*   FAIR      64  59  82 CALM      30.16R
SOUTH HILL*    CLOUDY    65  57  77 CALM      30.22S
LAWRENCEVILLE* FAIR      66  58  76 CALM      30.17S
EMPORIA*       CLOUDY    61  57  88 CALM      30.19S
$$

VAZ088>098-070400-
SOUTHEAST VIRGINIA

CITY           SKY/WX    TMP DP  RH WIND       PRES   REMARKS
NORFOLK        MOCLDY    66  56  70 CALM      30.18S
VIRGINIA BEACH CLOUDY    66  56  70 E5        30.18S
NORFOLK NAVAL  CLOUDY    71  57  61 S3        30.20R
WEST POINT*    MOCLDY    67  58  73 CALM      30.19S
SALUDA*        FAIR      63  58  83 E7        30.17F
NEWPORT NEWS   MOCLDY    71  57  61 S6        30.18S
LANGLEY AFB    MOCLDY    67  59  75 S7        30.17S
FORT EUSTIS    MOCLDY    67  60  77 SE6       30.16S
WILLIAMSBURG*  MOCLDY    70  63  78 SE5       30.19S
HR EXEC AP*    FAIR      57  54  88 CALM      30.20S
FRANKLIN*      MOCLDY    65  57  75 SE3       30.18F
WAKEFIELD      MOCLDY    65  57  75 CALM      30.17S
$$

VAZ020-022-025-037-045-070400-
WEST CENTRAL AND SOUTHWEST VIRGINIA

CITY           SKY/WX    TMP DP  RH WIND       PRES   REMARKS
STAUNTON*      CLOUDY    66  61  82 N5        30.23R
WAYNESBORO*    CLOUDY    67  60  78 S3        30.21S
HOT SPRINGS VA MOCLDY    62  51  66 S3        30.28S
LYNCHBURG      PTCLDY    61  60  97 CALM      30.19S
DANVILLE       PTCLDY    67  57  70 CALM      30.16S
SOUTH BOSTON*  FAIR      65  58  77 CALM      30.17R
MARTINSVILLE   MOCLDY    66  60  80 CALM      30.20R
ROANOKE        PTCLDY    61  60  97 CALM      30.21R
BLACKSBURG     MOCLDY    59  56  90 CALM      30.24F
DUBLIN*        PTCLDY    64  60  88 CALM      30.23S
MARION*        CLEAR     59  57  94 CALM      30.26S FOG
HILLSVILLE*    FAIR      64  53  68 SE3       30.24S
RICHLANDS*     CLOUDY    65  52  62 NE3       30.23S
WISE*          CLOUDY    64  50  59 CALM      30.23S
ABINGDON*      PTCLDY    65  56  72 E6        30.20S
$$

MDZ021>025-VAZ099-100-070400-
SOUTHERN MARYLAND AND THE DELMARVA PENINSULA

CITY           SKY/WX    TMP DP  RH WIND       PRES   REMARKS
PATUXENT RIVER MOCLDY    63  58  83 E9        30.19R
BAY BRIDGE APT   N/A    N/A N/A N/A E8        30.22R
LEONARDTOWN    PTCLDY    63  55  77 E5        30.22R
DOVER          CLOUDY    58  56  92 SE3       30.19S
GEORGETOWN     CLOUDY    56  50  80 E6        30.23S
EASTON         CLOUDY    62  53  71 SE6       30.25S
CAMBRIDGE      PTCLDY    61  52  72 CALM      30.21F
SALISBURY      PTCLDY    55  51  86 NE6       30.22S
OCEAN CITY     PTCLDY    54  51  90 E5        30.22S
WALLOPS ISLAND PTCLDY    58  56  93 NE10      30.22R
ACCOMACK*      MOCLDY    59  57  94 CALM      30.20R
$$

NCZ012>017-030>032-070400-
NORTH CENTRAL AND EASTERN NORTH CAROLINA

CITY           SKY/WX    TMP DP  RH WIND       PRES   REMARKS
ROANOKE RAPIDS FAIR      63  57  82 CALM      30.18R
RALEIGH        MOCLDY    67  53  61 CALM      30.17R
ELIZABETH CITY CLOUDY    64  58  80 CALM      30.18S
AHOSKIE*       CLOUDY    61  58  88 CALM      30.18S
EDENTON*       CLOUDY    63  60  91 NE3       30.18S
CURRITUCK*     CLOUDY    63  57  81 CALM      30.19S
KILL DEVIL HLS CLOUDY    62  58  89 E3        30.17S
MANTEO         CLOUDY    65  62  90 E7        30.18S
CAPE HATTERAS  CLOUDY    64  56  75 E6        30.15F
TARBORO*       FAIR      60  58  93 CALM      30.19R
GOLDSBORO      CLOUDY    62  56  81 NE2       30.15R
WASHINGTON     CLOUDY    61  57  88 N3        30.17S
GREENVILLE     CLOUDY    63  59  88 CALM      30.18S
NEW BERN       CLOUDY    65  59  81 NE6       30.15S
WILMINGTON     CLOUDY    65  58  78 NE9       30.12S
$$

VAZ048-070400-
ELSEWHERE

CITY           SKY/WX    TMP DP  RH WIND       PRES   REMARKS
HARRISBURG PA  CLOUDY    59  53  80 CALM      30.22F
BALTIMORE      MOCLDY    65  53  65 E6        30.21S
ANNAPOLIS      PTCLDY    65  53  65 SE6       30.21S
ANDREWS AFB    MOCLDY    64  55  72 E5        30.21R
PHILADELPHIA   PTCLDY    60  50  69 NE5       30.23F
HENDERSON NC   MOCLDY    69  54  60 SE6       30.17S
GREENSBORO     PTCLDY    69  54  58 S6        30.16S
ROCKY MOUNT    CLOUDY    62  55  77 CALM      30.17R
$$

VAZ100-070400-
MARINE

STATION/POSITION TIME  TEMP    WIND        PRES    WAVE   SWELL
                       AIR SEA DIR/SP/G            HT/PER HT/PER
                 (UTC) (F)     (DEG/KT/KT) (MB)    (FT/S) (FT/S)
BRANDYWINE LGT   0200   56 57  140/  8/  9 1023.6
CAPE MAY NJ      0200   56 64   80/  5/  7 1023.1R
LEWES DE         0200   55 58  130/  4/  7 1023.6R
15NM E FENWICK I 0250   54 55              1022.9S   2/ 4
OCEAN-CITY-INLET 0200   55 53   70/  5/  7 1023.3
WACHAPREAGUE VA  0200   62 70   70/  6/  8 1022.5R
THOMAS POINT MD  0300   63 60  120/ 11/ 12 1023.5R
GOOSES REEF MD   0300   64 64                N/A     1/ 2
COVE POINT MD    0200   65     110/ 12/ 12 1023.1R
SOLOMONS ISLAND  0200      62                N/A
BISHOPS HEAD MD  0200   64 71   90/ 11/ 13 1022.3R
PINEY POINT MD   0200          130/ 10/ 11   N/A
CAMBRIDGE MD     0200   63 66   80/ 10/ 11 1022.9R
LEWISETTA VA     0200   68 68              1021.7R
RAPPAHANNOCK LGT 0200          140/ 10/ 11 1022.5R
YORK RVR RNG VA  0200   66     160/  9/ 10 1021.4R
YORKTOWN VA      0200   68 64   CALM  /  1 1021.6R
JAMESTOWN VA     0300   69 68  150/  4/  6 1020.9S
DOMINION TERM VA 0200   68     150/  7/  8 1021.9R
KIPTOPEKE VA     0200      68  150/  8/  9   N/A
CHES BAY BRIDGE  0206   67 60  140/  8/  8 1021.8
CAPE HENRY VA    0200   65     150/  5/  8 1021.0R
CHESAPEAKE LGHT  0200   64     150/ 10/ 10 1023.1R
WILLOUBY STN VA  0200   69     160/  9/ 10 1022.5R
S CRANEY ISL VA  0200          220/  2/  3 1021.9R
CAPE HENRY BUOY  0228      64                N/A     2/ 8
1ST LANDING BUOY 0300      62                N/A     1
CAPE CHARLES BUO 0226      61                N/A     2/ 8   2/ 8
OFFSHORE WE BUOY 0211      63                N/A     2/ 6   2/ 6
64NM E OF VA BCH 0250   63 60   80/  6/  6 1021.9R   2/ 8   2/ 8
DUCK PIER NC     0200   61 51   60/  6/  7 1021.0F
44100 DUCK FRF   0224      61                N/A     2/ 7
44056 DUCK FRF   0211      57                N/A     2/ 8
OREGON INLET NC  0200   65 71   40/  7/ 10 1021.7R
HATTERAS NC      0206   69 69   90/  6/  9 1020.6
DIAMOND SHLS NC  0250   71 75  100/ 16/ 19 1020.5F   6/ 6   3/ 9
CAPE LOOKOUT NC  0300   69      70/ 13/ 15 1019.8F
$$


USA.gov is the U.S. government's official web portal to all federal, state and local government web resources and services.